Terminal Aerodrome Forecast
Issued by NWS

Home | Current Version | Previous Version | Text Only | Print | Product List | Glossary On
Versions: 1 2 3 4 5 6 7 8 9 10 11 12 13 14 15 16 17 18 19 20 21 22 23 24 25 26 27 28 29 30 31 32 33 34 35 36
000
FTUS45 KSLC 011739
TAFENV
TAF
KENV 011739Z 0118/0218 11007KT P6SM FEW150 SCT200
     FM020200 36010G16KT P6SM SKC
     FM020700 32005KT P6SM SKC
     FM021600 12007KT P6SM SKC
      AMD LTD TO CLD VIS AND WIND=

USA.gov is the U.S. government's official web portal to all federal, state and local government web resources and services.